Home > Weather > Concord > Past weeks

Flag for USA Past Weather in Concord, California, USA — Yesterday and Last 2 Weeks

Now
72 °F

Sunny.


Feels Like: 77 °F
Forecast: 60 / 96 °F
Wind: 3 mph from West

Location: Buchanan Field

Current Time: Jul 23, 2016 at 10:04:34 AM

Latest Report: Jul 23, 2016 at 8:53 AM


Visibility: 10 mi

Pressure: 29.93 "Hg

Humidity: 44%

Dew Point: 49 °F

Location of ConcordLocation

Past Weather in Concord — Graph

°F

Concord Temperature Yesterday

Maximum temperature yesterday: 93 °F (at 2:53 PM)
Minimum temperature yesterday: 59 °F (at 4:53 AM)
Average temperature yesterday: 75 °F

High & Low Weather Summary for the Past Weeks

 TemperatureHumidityPressure
High100 °F (Jul 14, 3:53 PM)81% (Jul 15, 5:53 AM)30.06 "Hg (Jul 15, 5:53 AM)
Low56 °F (Jul 19, 5:53 AM)7% (Jul 14, 3:53 PM)29.77 "Hg (Jul 16, 5:53 PM)
Average71 °F50%29.93 "Hg
* Reported Jul 8 8:53 AM — Jul 23 8:53 AM, Concord, Weather by CustomWeather, © 2016

Note: Actual official high and low records may vary slightly from our data, if they occured in-between our weather recording intervals... More about our weather records

Advertising

Concord Weather History for the Previous 24 Hours

Scroll right to see more
 ConditionsComfort  
Time TempWeatherWind HumidityBarometerVisibility
8:53 AM
Sat, Jul 23
72 °FSunny.3 mph44%29.93 "Hg10 mi
7:53 AM66 °FSunny.No wind63%29.93 "Hg10 mi
6:53 AM62 °FClear.No wind75%29.93 "Hg10 mi
5:53 AM60 °FClear.No wind78%29.92 "Hg10 mi
4:53 AM61 °FClear.No wind78%29.91 "Hg10 mi
3:53 AM62 °FClear.3 mph73%29.91 "Hg10 mi
2:53 AM63 °FClear.No wind68%29.93 "Hg10 mi
1:53 AM65 °FClear.No wind54%29.93 "Hg10 mi
12:53 AM67 °FClear.No wind51%29.95 "Hg10 mi
11:53 PM
Fri, Jul 22
69 °FClear.3 mph44%29.95 "Hg10 mi
10:53 PM72 °FClear.6 mph40%29.96 "Hg10 mi
9:53 PM75 °FClear.7 mph32%29.95 "Hg10 mi
8:53 PM80 °FSunny.8 mph20%29.94 "Hg10 mi
7:53 PM83 °FSunny.6 mph19%29.94 "Hg10 mi
6:53 PM87 °FSunny.15 mph18%29.94 "Hg10 mi
5:53 PM91 °FSunny.14 mph15%29.95 "Hg10 mi
4:53 PM93 °FSunny.9 mph17%29.96 "Hg10 mi
3:53 PM93 °FSunny.7 mph16%29.98 "Hg10 mi
2:53 PM93 °FSunny.14 mph14%30.00 "Hg10 mi
1:53 PM89 °FSunny.14 mph19%30.02 "Hg10 mi
12:53 PM85 °FSunny.9 mph26%30.04 "Hg10 mi
11:53 AM82 °FSunny.8 mph29%30.06 "Hg10 mi
10:53 AM78 °FSunny.8 mph37%30.06 "Hg10 mi
Weather by CustomWeather, © 2016

See weather overviewHow to use our weather pages